Regional Weather Roundup
Issued by NWS

Home | Current Version | Previous Version | Text Only | Print | Product List | Glossary Off
Versions: 1 2 3 4 5 6 7 8 9 10 11 12 13 14 15 16 17 18 19 20 21 22 23 24 25 26 27 28 29 30 31 32 33 34 35 36 37 38 39 40 41 42 43 44 45 46 47 48 49 50

000
ASUS45 KPSR 300910
RWRAZ

ARIZONA REGIONAL HOURLY WEATHER ROUNDUP
NATIONAL WEATHER SERVICE PHOENIX AZ
200 AM MST FRI JAN 30 2015

NOTE: FAIR INDICATES FEW OR NO CLOUDS BELOW 12,000 FEET WITH NO
SIGNIFICANT WEATHER AND/OR OBSTRUCTIONS TO VISIBILITY.

AZZ001>003-036-301000-
NORTHWEST ARIZONA

CITY           SKY/WX    TMP DP  RH WIND       PRES   REMARKS
BULLHEAD CITY  CLOUDY    61  52  72 CALM      30.01F
KINGMAN        LGT RAIN  49  47  93 N5        30.04F
$$

AZZ004>008-015-016-018-301000-
NORTH CENTRAL ARIZONA

CITY           SKY/WX    TMP DP  RH WIND       PRES   REMARKS
GRAND CANYON   LGT RAIN  37  35  92 NE13      30.12F WCI  29
PRESCOTT       LGT RAIN  47  44  90 SE7       30.04F
FLAGSTAFF      LGT RAIN  38  36  92 E10       30.11F WCI  31
PAYSON         LGT RAIN  46  45  93 VRB6      30.10F
$$

AZZ009>014-017-301000-
NORTHEAST ARIZONA

CITY           SKY/WX    TMP DP  RH WIND       PRES   REMARKS
WINSLOW        LGT RAIN  44  42  93 E14       30.11F
SAINT JOHNS    LGT RAIN  40  37  89 E17       30.14F WCI  31
WINDOW ROCK    LGT SNOW  34  31  88 CALM      30.24F FOG
SHOW LOW       LGT RAIN  39  39 100 E3        30.15F VSB 3/4
$$

AZZ023-301000-
GREATER PHOENIX AREA

CITY           SKY/WX    TMP DP  RH WIND       PRES   REMARKS
PHOENIX        LGT RAIN  59  57  93 E7        29.97S
BUCKEYE          N/A     57  57 100 NW3       29.98F
LUKE AFB       RAIN      59  57  94 N2        29.96F FOG
DEER VALLEY    LGT RAIN  57  55  93 E6        29.97F FOG
SCOTTSDALE     LGT RAIN  58  53  84 NE5       29.97F
MESA-GATEWAY   LGT RAIN  55  55 100 CALM      30.00S
$$

AZZ027-028-301000-
SOUTHWEST MARICOPA COUNTY AND PINAL COUNTY

CITY           SKY/WX    TMP DP  RH WIND       PRES   REMARKS
CASA GRANDE    CLOUDY    57  54  88 CALM      29.98F
$$

AZZ503-504-507>509-301000-
SOUTHEAST ARIZONA

CITY           SKY/WX    TMP DP  RH WIND       PRES   REMARKS
TUCSON         LGT RAIN  57  53  86 SE9       30.02S
DAVIS-MONTHAN  LGT RAIN  55  54  94 SE8       30.00F
NOGALES        LGT RAIN  54  51  90 E5        30.03F
SIERRA VISTA   LGT RAIN  48  46  93 S12G21    30.09F
DOUGLAS        LGT RAIN  50  45  83 E15       30.10F
SAFFORD        LGT RAIN  49  46  90 E14       30.15F
$$

AZZ020-021-025-026-031-301000-
SOUTHWEST ARIZONA

CITY           SKY/WX    TMP DP  RH WIND       PRES   REMARKS
YUMA           CLOUDY    62  57  83 SE7       29.94F
$$

CAZ031-033-041-043-047-048-061-301000-
SOUTHERN CALIFORNIA

CITY           SKY/WX    TMP DP  RH WIND       PRES   REMARKS
DOWNTOWN L.A.  CLOUDY    62  53  72 CALM      29.98F
L.A. AIRPORT   CLOUDY    63  48  58 CALM      29.99F
SAN DIEGO      CLOUDY    62  56  80 CALM      29.98F
BURBANK        CLOUDY    62  44  51 NW7       29.99F
ONTARIO        CLOUDY    59  50  72 CALM      29.98F
RIVERSIDE      CLOUDY    61  47  59 W6        29.98F
PALM SPRINGS   CLOUDY    66  43  43 NW5       29.97F
EL CENTRO NAS  LGT RAIN  62  48  60 CALM      29.93F
IMPERIAL       LGT RAIN  61  51  70 CALM      29.93F
BLYTHE         CLOUDY    60  52  74 N3        29.95F
NEEDLES        LGT RAIN  59  50  72 N5        30.00F
$$

NVZ020-UTZ003-301000-
SOUTHERN NEVADA-UTAH

CITY           SKY/WX    TMP DP  RH WIND       PRES   REMARKS
LAS VEGAS      CLOUDY    57  40  52 CALM      30.01F
SALT LAKE CITY CLOUDY    38  35  89 CALM      30.22S
$$

NMZ009-TXZ055-301000-
NEW MEXICO-WEST TEXAS

CITY           SKY/WX    TMP DP  RH WIND       PRES   REMARKS
ALBUQUERQUE    LGT SNOW  34  30  85 E14       30.37F FOG     WCI  25
EL PASO        LGT RAIN  45  39  79 NE8       30.31F
$$


........................KEY........................
SKY/WX - SKY CONDITION/WEATHER
TMP    - TEMPERATURE IN FAHRENHEIT
DP     - DEW POINT IN FAHRENHEIT
RH     - RELATIVE HUMIDITY IN PERCENT
WIND   - DIRECTION AND SPEED IN MILES PER HOUR (MPH)
VRB    - VARIABLE WIND DIRECTION
PRES   - MEAN SEA LEVEL PRESSURE IN INCHES OF MERCURY
         F - FALLING PRESSURE   R - RISING PRESSURE
         S - STEADY PRESSURE
VSB    - VISIBILITY IN MILES
HX     - HEAT INDEX IN FAHRENHEIT
WCI    - WIND CHILL INDEX IN FAHRENHEIT
TC     - TEMPERATURE IN CELSIUS WHICH IS ALSO KNOWN AS
         TEMPERATURE IN CENTIGRADE
AFB    - AIR FORCE BASE
         LUKE AFB IS LUKE AIR FORCE BASE
         DAVIS-MONTHAN IS DAVIS-MONTHAN AIR FORCE BASE
NAS    - NAVAL AIR STATION
         EL CENTRO NAS IS EL CENTRO NAVAL AIR STATION
N/A    - NOT AVAILABLE


USA.gov is the U.S. government's official web portal to all federal, state and local government web resources and services.